[[{"header":{"parameterUnit":"m.s-1","parameterCategory":1,"la1":30.2991,"la2":30.254,"lo1":-89.0895,"lo2":-89.0444,"dy":0.0017,"dx":0.0017,"nx":28,"ny":28,"refTime":"2023-09-03T21:00:00:Z","depth":0,"parameterNumber":2,"parameterNumberName":"U-component_of_WINDS"},"data":[0,0,0,0,0,0,0,0,0,0,0,0,0,0,0,0,0,0,0,0,0,0,0,0,0,0,0,0,0,0,0,0,0,0,0,0,0,0,0,0,0,0,0,0,0,0,0,0,0,0,0,0,0,0,0,0,0,0,-4.36,-4.3601,0,-4.3678,-4.3679,-4.368,-4.3632,-4.363,-4.3628,-4.3626,-4.3704,-4.3708,-4.3712,0,0,0,0,0,0,0,0,0,0,0,0,0,-4.3407,-4.3411,-4.36,-4.3601,-4.3602,-4.3678,-4.3679,-4.368,-4.3633,-4.363,-4.3627,-4.3625,-4.3702,-4.3707,-4.3712,0,0,0,0,0,0,0,0,0,0,0,0,0,-4.3489,-4.3412,-4.36,-4.3588,-4.3587,-4.3678,-4.3679,-4.3681,-4.3633,-4.363,-4.3626,-4.3623,-4.3701,-4.3707,-4.3713,-4.382,0,0,-4.3732,-4.3735,0,0,0,0,0,0,0,0,-4.3484,-4.3496,-4.3589,-4.3589,-4.3588,-4.3642,-4.364,-4.3727,-4.3634,-4.3616,-4.3626,-4.3622,-4.3686,-4.3693,-4.3715,-4.3823,-4.3827,-4.3733,-4.3737,-4.3739,-4.3741,0,0,0,0,0,0,0,-4.3478,-4.3492,-4.3631,-4.359,-4.359,-4.3577,-4.3585,-4.3656,-4.3669,-4.3617,-4.3614,-4.3624,-4.3685,-4.3709,-4.3717,-4.3828,-4.3733,-4.3738,-4.3742,-4.3744,-4.4024,-4.4028,0,0,0,0,0,0,-4.3474,-4.3488,-4.3629,-4.3633,-4.3527,-4.3583,-4.3592,-4.3628,-4.3668,-4.3671,-4.3627,-4.3621,-4.37,-4.3709,-4.3719,-4.3844,-4.3739,-4.3745,-4.3749,-4.4021,-4.4025,-4.4029,0,0,0,0,0,0,-4.347,-4.3487,-4.3625,-4.356,-4.3576,-4.359,-4.3631,-4.3632,-4.3656,-4.3675,-4.3677,-4.3649,-4.3698,-4.371,-4.3794,-4.3846,-4.3748,-4.3754,-4.4017,-4.4022,-4.4027,-4.4097,0,0,0,0,0,0,-4.3465,-4.3486,-4.3527,-4.3561,-4.358,-4.3701,-4.3635,-4.3636,-4.3667,-4.3661,-4.3697,-4.3699,-4.3696,-4.3785,-4.3801,-4.3853,-4.3758,-4.4012,-4.4019,-4.4026,-4.409,-4.4104,-4.4116,0,0,0,0,0,-4.3458,-4.3544,-4.353,-4.3547,-4.3632,-4.3704,-4.3714,-4.371,-4.3671,-4.3712,-4.3724,-4.3698,-4.3839,-4.3794,-4.3811,-4.3866,-4.4009,-4.4017,-4.4025,-4.4084,-4.4101,-4.4115,0,0,0,0,0,0,-4.3516,-4.3548,-4.3533,-4.3633,-4.3666,-4.3695,-4.3747,-4.3728,-4.3773,-4.3765,-4.3756,-4.3765,-4.3852,-4.3868,-4.3818,-4.397,-4.3917,-4.3929,-4.3956,-4.3973,-4.3986,-4.3979,-4.3764,0,0,0,0,0,-4.3541,-4.3597,-4.3622,-4.3707,-4.3725,-4.3733,-4.3764,-4.3757,-4.3791,-4.3805,-4.3823,-4.3856,-4.3908,-4.3942,-4.399,-4.4093,-4.4098,-4.4139,-4.4152,-4.4162,-4.4172,-4.4224,-4.4242,-4.4056,-4.4056,-4.4056,0,0,-4.3591,-4.3616,-4.3652,-4.3719,-4.3744,-4.3801,-4.3745,-4.3808,-4.385,-4.3814,-4.3894,-4.3909,-4.3945,-4.4038,-4.408,-4.4054,-4.4225,-4.4173,-4.4181,-4.4185,-4.4235,-4.4252,-4.4268,-4.4062,-4.4061,-4.406,0,0,-4.3712,-4.3738,-4.381,-4.3836,-4.3875,-4.388,-4.3897,-4.393,-4.3938,-4.4019,-4.3992,-4.4042,-4.4131,-4.4157,-4.4182,-4.4312,-4.4288,-4.4328,-4.4395,-4.4447,-4.4461,-4.4474,-4.4517,-4.4533,-4.4338,-4.4339,-4.4339,0,-4.377,-4.3855,-4.385,-4.3914,-4.3943,-4.3915,-4.3987,-4.4012,-4.4065,-4.4085,-4.4056,-4.4166,-4.4188,-4.4285,-4.4317,-4.4339,-4.4357,-4.4323,-4.446,-4.4472,-4.4484,-4.4525,-4.4542,-4.4343,-4.4342,-4.4342,-4.4341,0,-4.3923,-4.3983,-4.4036,-4.4087,-4.4123,-4.4191,-4.4195,-4.4231,-4.4222,-4.4229,-4.431,-4.4337,-4.4389,-4.4412,-4.4404,-4.4508,-4.449,-4.4461,-4.4407,-4.4506,-4.4544,-4.4561,-4.4349,-4.4347,-4.4346,-4.4345,0,0,-4.4082,-4.4128,-4.4148,-4.4169,-4.4209,-4.4254,-4.4321,-4.4372,-4.4402,-4.4439,-4.4493,-4.4569,-4.4541,-4.4569,-4.4564,-4.4609,-4.4706,-4.4574,-4.4574,-4.4595,-4.4819,-4.4839,-4.4857,-4.4692,-4.4695,-4.4698,-4.4815,0,-4.4202,-4.4318,-4.4314,-4.4421,-4.4474,-4.4448,-4.4505,-4.4535,-4.4544,-4.459,-4.4599,-4.4652,-4.4614,-4.463,-4.4674,-4.4685,-4.4751,-4.4677,-4.4739,-4.4742,-4.4728,-4.4878,-4.4899,-4.5009,-4.483,-4.4833,-4.4835,0,-4.4359,-4.44,-4.4512,-4.4542,-4.4565,-4.4616,-4.4661,-4.4706,-4.4739,-4.4742,-4.4774,-4.476,-4.4826,-4.4772,-4.4861,-4.4811,-4.4836,-4.4846,-4.485,-4.4853,-4.4792,-4.4882,-4.5044,-4.5059,-4.4859,-4.4857,-4.4855,0,-4.4459,-4.4544,-4.4621,-4.464,-4.4678,-4.4714,-4.4732,-4.4761,-4.4792,-4.4832,-4.485,-4.4898,-4.4923,-4.4959,-4.4958,-4.492,-4.5047,-4.4994,-4.5049,-4.5049,-4.5075,-4.5072,-4.524,-4.5097,-4.5096,-4.5096,-4.5096,0,-4.4593,-4.4662,-4.4666,-4.4713,-4.4789,-4.4784,-4.4859,-4.4872,-4.4899,-4.4947,-4.4928,-4.4973,-4.497,-4.5016,-4.5016,-4.5088,-4.51,-4.5103,-4.5101,-4.5103,-4.5102,-4.5117,-4.5108,-4.51,-4.5099,-4.5099,-4.5098,0,-4.4717,-4.4723,-4.4804,-4.4833,-4.4842,-4.4896,-4.492,-4.4964,-4.4972,-4.5033,-4.5047,-4.5058,-4.5111,-4.5114,-4.5175,-4.5175,-4.5261,-4.5253,-4.525,-4.5247,-4.5301,-4.5295,-4.5481,-4.5504,-4.5349,-4.535,-4.5352,0,-4.48,-4.4852,-4.4886,-4.4917,-4.4936,-4.4987,-4.5017,-4.5015,-4.5047,-4.5087,-4.5126,-4.5177,-4.5217,-4.5302,-4.5315,-4.5361,-4.5352,-4.5414,-4.5359,-4.5358,-4.5349,-4.5345,-4.5349,-4.5424,-4.5426,-4.5427,-4.5429,0,-4.4947,-4.4947,-4.4992,-4.5037,-4.5074,-4.511,-4.5143,-4.5169,-4.517,-4.5207,-4.5261,-4.5292,-4.5354,-4.5404,-4.5449,-4.5465,-4.5446,-4.5446,-4.5461,-4.5461,-4.5456,-4.5457,-4.5276,-4.5441,-4.544,-4.5439,-4.5438,-4.5438,-4.5051,-4.5095,-4.5125,-4.5175,-4.52,-4.5231,-4.5273,-4.5285,-4.533,-4.5379,-4.5375,-4.5434,-4.5464,-4.5522,-4.5542,-4.5587,-4.5565,-4.5587,-4.5592,-4.5597,-4.5601,-4.5452,-4.5595,-4.5595,-4.5595,-4.5594,-4.5594,0,-4.5194,-4.5212,-4.5258,-4.5304,-4.5343,-4.5323,-4.5359,-4.5392,-4.5444,-4.5473,-4.5513,-4.5573,-4.5621,-4.5638,-4.5684,-4.5717,-4.5709,-4.5729,-4.5725,-4.5728,-4.5619,-4.5601,-4.5734,-4.5734,-4.5734,-4.5734,-4.5734,-4.5734,-4.5272,-4.5345,-4.5348,-4.5432,-4.5449,-4.5506,-4.5527,-4.5555,-4.5579,-4.5647,-4.5686,-4.5697,-4.5721,-4.5768,-4.5811,-4.5814,-4.5831,-4.5854,-4.5853,-4.5751,-4.5736,-4.5723,-4.5705,-4.5858,-4.5858,-4.5958,-4.5959,-4.596]},{"header":{"parameterUnit":"m.s-1","parameterCategory":1,"la1":30.2991,"la2":30.254,"lo1":-89.0895,"lo2":-89.0444,"dy":0.0017,"dx":0.0017,"nx":28,"ny":28,"refTime":"2023-09-03T21:00:00:Z","depth":0,"parameterNumber":3,"parameterNumberName":"V-component_of_WINDS"},"data":[0,0,0,0,0,0,0,0,0,0,0,0,0,0,0,0,0,0,0,0,0,0,0,0,0,0,0,0,0,0,0,0,0,0,0,0,0,0,0,0,0,0,0,0,0,0,0,0,0,0,0,0,0,0,0,0,0,0,4.3979,4.398,0,4.4082,4.4083,4.4084,4.4057,4.4055,4.4053,4.4051,4.415,4.4154,4.4158,0,0,0,0,0,0,0,0,0,0,0,0,0,4.3753,4.3757,4.3979,4.398,4.3982,4.4081,4.4083,4.4084,4.4057,4.4055,4.4052,4.405,4.4148,4.4153,4.4159,0,0,0,0,0,0,0,0,0,0,0,0,0,4.3853,4.3759,4.3979,4.398,4.3981,4.4081,4.4083,4.4085,4.4058,4.4054,4.4051,4.4049,4.4146,4.4153,4.416,4.4262,0,0,4.418,4.4183,0,0,0,0,0,0,0,0,4.3847,4.3861,4.3979,4.398,4.3982,4.4053,4.4039,4.4144,4.4058,4.4028,4.4051,4.4047,4.412,4.4128,4.4154,4.4267,4.4271,4.4181,4.4185,4.4188,4.419,0,0,0,0,0,0,0,4.384,4.3857,4.4019,4.398,4.3982,4.3974,4.3984,4.4059,4.409,4.4031,4.4029,4.4042,4.412,4.4148,4.4156,4.4273,4.4181,4.4187,4.4191,4.4194,4.4472,4.4475,0,0,0,0,0,0,4.3833,4.3851,4.4016,4.4023,4.3906,4.398,4.3992,4.4033,4.4089,4.4094,4.4044,4.404,4.4138,4.4148,4.416,4.4281,4.4188,4.4194,4.4198,4.4469,4.4473,4.4476,0,0,0,0,0,0,4.3828,4.3848,4.4012,4.3936,4.3957,4.3987,4.4034,4.4037,4.4065,4.4099,4.4104,4.4068,4.4136,4.415,4.4237,4.4284,4.4197,4.4203,4.4465,4.447,4.4474,4.4527,0,0,0,0,0,0,4.3822,4.3847,4.3888,4.3938,4.3961,4.409,4.4037,4.4041,4.4077,4.4073,4.4122,4.4127,4.4134,4.4227,4.4244,4.4292,4.4209,4.446,4.4467,4.4473,4.4521,4.4533,4.4543,0,0,0,0,0,4.3814,4.3897,4.389,4.391,4.4013,4.4093,4.4105,4.4114,4.4081,4.4121,4.4143,4.4126,4.4277,4.4236,4.4255,4.4306,4.4457,4.4465,4.4472,4.4516,4.453,4.4543,0,0,0,0,0,0,4.385,4.3904,4.3896,4.3999,4.4042,4.4088,4.4139,4.4129,4.418,4.4174,4.418,4.4191,4.4279,4.4302,4.4255,4.4407,4.4362,4.4374,4.4389,4.4403,4.4414,4.4405,4.4214,0,0,0,0,0,4.3871,4.3933,4.3976,4.4062,4.4084,4.4108,4.4143,4.4146,4.4189,4.4206,4.4235,4.4276,4.4332,4.4369,4.4424,4.4525,4.4533,4.4569,4.458,4.4589,4.4598,4.465,4.4666,4.4501,4.4501,4.4501,0,0,4.3912,4.3949,4.3988,4.407,4.4104,4.4165,4.4123,4.4191,4.4236,4.4216,4.4299,4.4322,4.4368,4.4462,4.4504,4.4483,4.4646,4.4599,4.4606,4.461,4.466,4.4675,4.4689,4.4506,4.4505,4.4504,0,0,4.4019,4.4055,4.413,4.4165,4.4216,4.4232,4.425,4.4298,4.4312,4.4397,4.4382,4.4435,4.4533,4.4566,4.4595,4.4715,4.4699,4.4732,4.4789,4.484,4.4853,4.4865,4.4904,4.4919,4.4742,4.4742,4.4742,0,4.4064,4.4159,4.4169,4.4238,4.4273,4.426,4.4334,4.4366,4.4432,4.4456,4.4432,4.4553,4.4584,4.4684,4.4713,4.4738,4.4756,4.4725,4.4851,4.4863,4.4874,4.4911,4.4927,4.4745,4.4745,4.4744,4.4744,0,4.4209,4.4275,4.4329,4.4395,4.4436,4.4507,4.4526,4.4566,4.4565,4.4582,4.4667,4.4703,4.4763,4.4788,4.4787,4.4887,4.4872,4.485,4.4804,4.4893,4.4928,4.4943,4.475,4.4749,4.4748,4.4747,0,0,4.4341,4.4412,4.4431,4.4459,4.4516,4.4565,4.4635,4.4696,4.4729,4.4775,4.4831,4.4914,4.4894,4.4927,4.493,4.4975,4.5064,4.4947,4.4948,4.4965,4.5173,4.5187,4.5204,4.5055,4.5058,4.506,4.5168,0,4.4451,4.4575,4.4586,4.4696,4.4755,4.4744,4.4804,4.4843,4.4861,4.4912,4.4931,4.4989,4.4959,4.4979,4.5023,4.5044,4.5105,4.5036,4.5104,4.5107,4.509,4.5223,4.5239,4.5339,4.5182,4.5184,4.5186,0,4.4595,4.4647,4.4764,4.481,4.4835,4.4889,4.4944,4.4995,4.5038,4.5048,4.5085,4.5082,4.515,4.5105,4.5198,4.5151,4.5179,4.5194,4.5197,4.5202,4.515,4.5228,4.5371,4.5385,4.5209,4.5207,4.5205,0,4.4676,4.4775,4.4857,4.4882,4.4939,4.4976,4.5001,4.5043,4.5078,4.5126,4.5148,4.5203,4.5232,4.5274,4.5284,4.5251,4.5376,4.5332,4.5383,4.5382,4.5407,4.5405,4.5554,4.5431,4.5431,4.543,4.543,0,4.4796,4.4867,4.4893,4.4943,4.5022,4.5033,4.511,4.5132,4.5168,4.5221,4.5214,4.5263,4.5275,4.5326,4.5335,4.5408,4.5422,4.543,4.543,4.5429,4.5427,4.5445,4.5438,4.5434,4.5433,4.5433,4.5432,0,4.4898,4.4919,4.5007,4.5054,4.5068,4.5123,4.5162,4.5209,4.5226,4.5292,4.5308,4.5334,4.5393,4.5409,4.5479,4.5484,4.557,4.5566,4.5556,4.5555,4.5604,4.5598,4.5768,4.5789,4.5654,4.5656,4.5657,0,4.4972,4.5027,4.508,4.5115,4.5142,4.5199,4.5236,4.5248,4.5285,4.5339,4.5378,4.5437,4.5484,4.5578,4.5602,4.5655,4.565,4.5706,4.5658,4.5654,4.5647,4.5643,4.5647,4.5714,4.5715,4.5716,4.5717,0,4.51,4.5107,4.5161,4.5218,4.5261,4.5306,4.5349,4.5378,4.5396,4.5438,4.5499,4.5536,4.5608,4.5665,4.5718,4.5741,4.5731,4.5733,4.5747,4.5744,4.5735,4.5738,4.5578,4.5728,4.5727,4.5726,4.5726,4.5725,4.5188,4.5235,4.528,4.5339,4.5373,4.5413,4.5459,4.5482,4.5534,4.5594,4.5598,4.5664,4.5704,4.5775,4.5801,4.585,4.5833,4.5855,4.5859,4.5864,4.5867,4.573,4.5861,4.586,4.586,4.586,4.586,0,4.5313,4.5341,4.5396,4.5457,4.5502,4.5492,4.5539,4.5577,4.5635,4.5675,4.5721,4.579,4.5845,4.5874,4.5928,4.5962,4.5958,4.5975,4.5971,4.5976,4.588,4.5861,4.5977,4.5977,4.5977,4.5977,4.5977,4.5977,4.5384,4.5462,4.5475,4.5569,4.5596,4.5661,4.5688,4.5724,4.5756,4.5833,4.588,4.5899,4.5933,4.5989,4.6038,4.6045,4.6063,4.6082,4.6086,4.5995,4.5983,4.5972,4.5954,4.6087,4.6087,4.6178,4.6178,4.6179]}]]